This is the latest recevied weather packets stored in our database for station/object KF5VOI. If no packets are shown the sender has not sent any weather packets the latest 1 day(s).
| Time | Temp. | Humidity | Pressure | Rain* | Wind** | Luminosity | Snow |
|---|---|---|---|---|---|---|---|
| 1778061396 | 23.33° C | 99% | 1013.3 hPa | 0 mm | 0 m/s | - | - |
| 1778057796 | 23.33° C | 99% | 1013.4 hPa | 0 mm | 0 m/s | - | - |
| 1778055995 | 22.78° C | 99% | 1013.2 hPa | 0 mm | 0 m/s | - | - |
| 1778054196 | 22.78° C | 99% | 1013.1 hPa | 0 mm | 0.45 m/s, 143° | - | - |
| 1778052395 | 22.78° C | 99% | 1013.4 hPa | 0 mm | 1.79 m/s, 118° | - | - |
| 1778050594 | 22.78° C | 99% | 1013.7 hPa | 0 mm | 0.45 m/s, 143° | - | - |
| 1778048794 | 22.78° C | 99% | 1013.6 hPa | 0 mm | 0 m/s | - | - |
| 1778046994 | 22.78° C | 99% | 1013.6 hPa | 0 mm | 0 m/s | - | - |
| 1778045194 | 22.78° C | 99% | 1014 hPa | 0 mm | 0 m/s | - | - |
| 1778039795 | 22.78° C | 99% | 1014.2 hPa | 0 mm | 0 m/s | - | - |
| 1778037994 | 22.78° C | 99% | 1014.2 hPa | 0 mm | 0 m/s | - | - |
| 1778036194 | 22.78° C | 98% | 1014.1 hPa | 0 mm | 0.45 m/s, 135° | - | - |
| 1778034394 | 23.33° C | 96% | 1013.8 hPa | 0 mm | 0 m/s | - | - |
| 1778032594 | 23.33° C | 96% | 1013.6 hPa | 0 mm | 0 m/s | - | - |
| 1778030796 | 23.89° C | 93% | 1013.5 hPa | 0 mm | 0 m/s | - | - |
| 1778028995 | 24.44° C | 91% | 1013.6 hPa | 0 mm | 0 m/s | - | - |
| 1778027199 | 25° C | 89% | 1013.5 hPa | 0 mm | 0 m/s | - | - |
| 1778025394 | 25.56° C | 87% | 1013.5 hPa | 0 mm | 1.79 m/s, 144° | - | - |
| 1778023597 | 26.11° C | 86% | 1013.6 hPa | 0 mm | 0.89 m/s, 157° | - | - |
| 1778019994 | 26.67° C | 81% | 1013.3 hPa | 0 mm | 4.02 m/s, 125° | - | - |
| 1778018194 | 27.78° C | 79% | 1013.4 hPa | 0 mm | 4.02 m/s, 138° | - | - |
| 1778016395 | 28.33° C | 77% | 1013.7 hPa | 0 mm | 3.58 m/s, 125° | - | - |
| 1778014594 | 28.33° C | 76% | 1013.8 hPa | 0 mm | 3.58 m/s, 141° | - | - |
| 1778012794 | 29.44° C | 72% | 1013.9 hPa | 0 mm | 2.68 m/s, 128° | - | - |
| 1778010996 | 29.44° C | 69% | 1013.9 hPa | 0 mm | 1.79 m/s, 137° | - | - |
* Rain latest hour (hover to see other rain measurements)
** Current wind speed in m/s (hover to see current wind gust speed)